Simultaneous Nadir Overpasses (SNOs) Predictions

Prediction of SNOs between LANDSAT-8 and METOP-B Satellite Orbit:

Table of predicted SNOs for the next 14.0 days since TLE Epoch: 12/9/2023
Index Date (LANDSAT-8) Time (LANDSAT-8) Lat,Lon (LANDSAT-8) SZA (LANDSAT-8 ) Date (METOP-B) Time (METOP-B) Lat,Lon (METOP-B) SZA (METOP-B ) Distance(km) Time Diff (sec)
1 12/10/2023 06:48:11 81.26, 120.02 106.44 12/10/2023 06:47:57 81.26, 119.92 106.43 1.75 14
2 12/10/2023 07:37:37 -81.28, -72.02 73.52 12/10/2023 07:38:36 -81.28, -72.08 73.50 1.01 59
3 12/13/2023 02:22:28 81.27,-173.43 106.65 12/13/2023 02:22:14 81.26,-173.56 106.63 2.11 14
4 12/13/2023 03:11:54 -81.29, -5.45 73.30 12/13/2023 03:12:53 -81.28, -5.54 73.29 1.58 59
5 12/15/2023 21:56:44 81.26,-107.05 106.78 12/15/2023 21:56:30 81.27,-107.10 106.77 0.88 14
6 12/15/2023 22:46:10 -81.28, 60.96 73.17 12/15/2023 22:47:09 -81.28, 60.94 73.15 0.43 59
7 12/18/2023 17:31:00 81.27, -40.44 106.87 12/18/2023 17:30:46 81.27, -40.31 106.88 2.18 14
8 12/18/2023 18:20:27 -81.27, 127.22 73.13 12/18/2023 18:21:26 -81.28, 127.36 73.08 2.54 59
9 12/21/2023 13:05:16 81.27, 26.01 106.89 12/21/2023 13:05:03 81.27, 26.03 106.88 0.33 13



Historial Predications of SNOs between LANDSAT-8 and METOP-B
